Location: Feydey
(46.3431°N, 7.0106°E)
Time: 07:11:21
(UTC+00:00)

Cosmos 2100 Rocket - Pass Details

Date: 20 June 2021
Orbit: 955 x 1001 km, 82.9° (Epoch: 28 July)

Event Time Altitude Azimuth Distance (km) Brightness Sun altitude
Rises 19:54:47 0° 354° (N) 3,735 7.9 -4.5°
Reaches altitude 10° 19:57:25 10° 0° (N) 2,778 7.1 -4.8°
Maximum altitude 20:03:37 51° 76° (ENE) 1,229 4.4 -5.6°
Drops below altitude 10° 20:09:44 10° 152° (SSE) 2,735 5.7 -6.4°
Enters shadow 20:10:49 - 154° (SSE) 3,125 6.0 -6.5°
